Time,TemperatureF,DewpointF,PressureIn,WindDirection,WindDirectionDegrees,WindSpeedMPH,WindSpeedGustMPH,Humidity,HourlyPrecipIn,Conditions,Clouds,dailyrainin,SolarRadiationWatts/m^2,SoftwareType,DateUTC
2013-09-26 00:02:00,61.0,17.0,-100.00,South,188,10.0,24.0,18,0.00,,,0.00,1.000000,,2013-09-26 06:02:00,
2013-09-26 00:12:00,61.0,17.0,-100.00,South,188,10.0,24.0,18,0.00,,,0.00,1.000000,,2013-09-26 06:12:00,
2013-09-26 00:42:00,59.0,20.0,-100.00,South,176,11.0,18.0,22,0.00,,,0.00,1.000000,,2013-09-26 06:42:00,
2013-09-26 00:53:00,59.0,20.0,-100.00,South,176,11.0,18.0,22,0.00,,,0.00,1.000000,,2013-09-26 06:53:00,
2013-09-26 01:01:00,59.0,20.0,-100.00,South,176,11.0,18.0,22,0.00,,,0.00,1.000000,,2013-09-26 07:01:00,
2013-09-26 01:11:00,59.0,20.0,-100.00,South,176,11.0,18.0,22,0.00,,,0.00,1.000000,,2013-09-26 07:11:00,
2013-09-26 01:42:00,57.0,20.0,-100.00,SSE,167,10.0,18.0,23,0.00,,,0.00,1.000000,,2013-09-26 07:42:00,
2013-09-26 01:53:00,57.0,20.0,-100.00,SSE,167,10.0,18.0,23,0.00,,,0.00,1.000000,,2013-09-26 07:53:00,
2013-09-26 02:02:00,57.0,20.0,-100.00,SSE,167,10.0,18.0,23,0.00,,,0.00,1.000000,,2013-09-26 08:02:00,
2013-09-26 02:11:00,57.0,20.0,-100.00,SSE,167,10.0,18.0,23,0.00,,,0.00,1.000000,,2013-09-26 08:11:00,
2013-09-26 02:42:00,56.0,20.0,-100.00,South,181,8.0,15.0,24,0.00,,,0.00,1.000000,,2013-09-26 08:42:00,
2013-09-26 02:52:00,56.0,20.0,-100.00,South,181,8.0,15.0,24,0.00,,,0.00,1.000000,,2013-09-26 08:52:00,
2013-09-26 03:02:00,56.0,20.0,-100.00,South,181,8.0,15.0,24,0.00,,,0.00,1.000000,,2013-09-26 09:02:00,
2013-09-26 03:11:00,56.0,20.0,-100.00,South,181,8.0,15.0,24,0.00,,,0.00,1.000000,,2013-09-26 09:11:00,
2013-09-26 03:43:00,52.0,22.0,-100.00,SE,145,7.0,13.0,31,0.00,,,-99.99,1.000000,,2013-09-26 09:43:00,
2013-09-26 03:54:00,52.0,22.0,-100.00,SE,145,7.0,13.0,31,0.00,,,-99.99,1.000000,,2013-09-26 09:54:00,
2013-09-26 04:03:00,52.0,22.0,-100.00,SE,145,7.0,13.0,31,0.00,,,-99.99,1.000000,,2013-09-26 10:03:00,
2013-09-26 04:12:00,52.0,22.0,-100.00,SE,145,7.0,13.0,31,0.00,,,-99.99,1.000000,,2013-09-26 10:12:00,
2013-09-26 04:42:00,52.0,21.0,-100.00,SSE,158,7.0,13.0,29,0.00,,,0.00,1.000000,,2013-09-26 10:42:00,
2013-09-26 04:53:00,52.0,21.0,-100.00,SSE,158,7.0,13.0,29,0.00,,,0.00,1.000000,,2013-09-26 10:53:00,
2013-09-26 05:02:00,52.0,21.0,-100.00,SSE,158,7.0,13.0,29,0.00,,,0.00,1.000000,,2013-09-26 11:02:00,
2013-09-26 05:12:00,52.0,21.0,-100.00,SSE,158,7.0,13.0,29,0.00,,,0.00,1.000000,,2013-09-26 11:12:00,
2013-09-26 05:42:00,51.0,21.0,-100.00,SSE,151,7.0,11.0,31,0.00,,,0.00,1.000000,,2013-09-26 11:42:00,
2013-09-26 05:52:00,51.0,21.0,-100.00,SSE,151,7.0,11.0,31,0.00,,,0.00,1.000000,,2013-09-26 11:52:00,
2013-09-26 06:01:00,51.0,21.0,-100.00,SSE,151,7.0,11.0,31,0.00,,,0.00,1.000000,,2013-09-26 12:01:00,
2013-09-26 06:11:00,51.0,21.0,-100.00,SSE,151,7.0,11.0,31,0.00,,,0.00,1.000000,,2013-09-26 12:11:00,
2013-09-26 06:42:00,49.0,21.0,-100.00,SE,146,7.0,12.0,33,0.00,,,0.00,1.000000,,2013-09-26 12:42:00,
2013-09-26 06:52:00,49.0,21.0,-100.00,SE,146,7.0,12.0,33,0.00,,,0.00,1.000000,,2013-09-26 12:52:00,
2013-09-26 07:02:00,49.0,21.0,-100.00,SE,146,7.0,12.0,33,0.00,,,0.00,1.000000,,2013-09-26 13:02:00,
2013-09-26 07:11:00,49.0,21.0,-100.00,SE,146,7.0,12.0,33,0.00,,,0.00,1.000000,,2013-09-26 13:11:00,
2013-09-26 07:42:00,46.0,19.0,-100.00,SE,135,6.0,11.0,34,0.00,,,0.00,2.000000,,2013-09-26 13:42:00,
2013-09-26 07:52:00,46.0,19.0,-100.00,SE,135,6.0,11.0,34,0.00,,,0.00,2.000000,,2013-09-26 13:52:00,
2013-09-26 08:02:00,46.0,19.0,-100.00,SE,135,6.0,11.0,34,0.00,,,0.00,2.000000,,2013-09-26 14:02:00,
2013-09-26 08:11:00,46.0,19.0,-100.00,SE,135,6.0,11.0,34,0.00,,,0.00,2.000000,,2013-09-26 14:11:00,
2013-09-26 09:44:00,62.0,18.0,-100.00,SSE,168,13.0,21.0,18,-99.99,,,0.00,194.000000,,2013-09-26 15:44:00,
2013-09-26 09:54:00,62.0,18.0,-100.00,SSE,168,13.0,21.0,18,-99.99,,,0.00,194.000000,,2013-09-26 15:54:00,
2013-09-26 10:04:00,62.0,18.0,-100.00,SSE,168,13.0,21.0,18,-99.99,,,0.00,194.000000,,2013-09-26 16:04:00,
2013-09-26 10:12:00,62.0,18.0,-100.00,SSE,168,13.0,21.0,18,-99.99,,,0.00,194.000000,,2013-09-26 16:12:00,
2013-09-26 10:43:00,65.0,15.0,-100.00,SSE,167,15.0,24.0,14,0.00,,,0.00,583.000000,,2013-09-26 16:43:00,
2013-09-26 10:53:00,65.0,15.0,-100.00,SSE,167,15.0,24.0,14,0.00,,,0.00,583.000000,,2013-09-26 16:53:00,
2013-09-26 11:03:00,65.0,15.0,-100.00,SSE,167,15.0,24.0,14,0.00,,,0.00,583.000000,,2013-09-26 17:03:00,
2013-09-26 11:12:00,65.0,15.0,-100.00,SSE,167,15.0,24.0,14,0.00,,,0.00,583.000000,,2013-09-26 17:12:00,
2013-09-26 11:43:00,67.0,15.0,-100.00,South,182,13.0,24.0,13,0.00,,,0.00,790.000000,,2013-09-26 17:43:00,
2013-09-26 11:52:00,67.0,15.0,-100.00,South,182,13.0,24.0,13,0.00,,,0.00,790.000000,,2013-09-26 17:52:00,
2013-09-26 12:01:00,67.0,15.0,-100.00,South,182,13.0,24.0,13,0.00,,,0.00,790.000000,,2013-09-26 18:01:00,
2013-09-26 12:13:00,67.0,15.0,-100.00,South,182,13.0,24.0,13,0.00,,,0.00,790.000000,,2013-09-26 18:13:00,
2013-09-26 12:42:00,69.0,16.0,-100.00,South,173,14.0,29.0,13,0.00,,,0.00,939.000000,,2013-09-26 18:42:00,
2013-09-26 12:52:00,69.0,16.0,-100.00,South,173,14.0,29.0,13,0.00,,,0.00,939.000000,,2013-09-26 18:52:00,
2013-09-26 13:03:00,69.0,16.0,-100.00,South,173,14.0,29.0,13,0.00,,,0.00,939.000000,,2013-09-26 19:03:00,
2013-09-26 13:12:00,69.0,16.0,-100.00,South,173,14.0,29.0,13,0.00,,,0.00,939.000000,,2013-09-26 19:12:00,
2013-09-26 13:44:00,72.0,15.0,-100.00,South,187,17.0,27.0,11,0.00,,,0.00,1017.000000,,2013-09-26 19:44:00,
2013-09-26 13:52:00,72.0,15.0,-100.00,South,187,17.0,27.0,11,0.00,,,0.00,1017.000000,,2013-09-26 19:52:00,
2013-09-26 14:02:00,72.0,15.0,-100.00,South,187,17.0,27.0,11,0.00,,,0.00,1017.000000,,2013-09-26 20:02:00,
2013-09-26 14:12:00,72.0,15.0,-100.00,South,187,17.0,27.0,11,0.00,,,0.00,1017.000000,,2013-09-26 20:12:00,
2013-09-26 14:43:00,73.0,15.0,-100.00,South,189,15.0,31.0,11,0.00,,,0.00,1018.000000,,2013-09-26 20:43:00,
2013-09-26 14:52:00,73.0,15.0,-100.00,South,189,15.0,31.0,11,0.00,,,0.00,1018.000000,,2013-09-26 20:52:00,
2013-09-26 15:02:00,73.0,15.0,-100.00,South,189,15.0,31.0,11,0.00,,,0.00,1018.000000,,2013-09-26 21:02:00,
2013-09-26 15:11:00,73.0,15.0,-100.00,South,189,15.0,31.0,11,0.00,,,0.00,1018.000000,,2013-09-26 21:11:00,
2013-09-26 15:44:00,75.0,15.0,-100.00,South,180,16.0,32.0,10,0.00,,,0.00,945.000000,,2013-09-26 21:44:00,
2013-09-26 15:54:00,75.0,15.0,-100.00,South,180,16.0,32.0,10,0.00,,,0.00,945.000000,,2013-09-26 21:54:00,
2013-09-26 16:04:00,75.0,15.0,-100.00,South,180,16.0,32.0,10,0.00,,,0.00,945.000000,,2013-09-26 22:04:00,
2013-09-26 16:14:00,75.0,15.0,-100.00,South,180,16.0,32.0,10,0.00,,,0.00,945.000000,,2013-09-26 22:14:00,
2013-09-26 16:43:00,75.0,17.0,-100.00,South,176,16.0,29.0,11,0.00,,,0.00,797.000000,,2013-09-26 22:43:00,
2013-09-26 16:54:00,75.0,17.0,-100.00,South,176,16.0,29.0,11,0.00,,,0.00,797.000000,,2013-09-26 22:54:00,
2013-09-26 17:03:00,75.0,17.0,-100.00,South,176,16.0,29.0,11,0.00,,,0.00,797.000000,,2013-09-26 23:03:00,
2013-09-26 17:12:00,75.0,17.0,-100.00,South,176,16.0,29.0,11,0.00,,,0.00,797.000000,,2013-09-26 23:12:00,
2013-09-26 17:42:00,74.0,20.0,-100.00,SSW,193,18.0,34.0,13,0.00,,,0.00,586.000000,,2013-09-26 23:42:00,
2013-09-26 17:53:00,74.0,20.0,-100.00,SSW,193,18.0,34.0,13,0.00,,,0.00,586.000000,,2013-09-26 23:53:00,
2013-09-26 18:02:00,74.0,20.0,-100.00,SSW,193,18.0,34.0,13,0.00,,,0.00,586.000000,,2013-09-27 00:02:00,
2013-09-26 18:43:00,71.0,23.0,-100.00,SSW,207,17.0,31.0,16,0.00,,,0.00,334.000000,,2013-09-27 00:43:00,
2013-09-26 18:52:00,71.0,23.0,-100.00,SSW,207,17.0,31.0,16,0.00,,,0.00,334.000000,,2013-09-27 00:52:00,
2013-09-26 19:01:00,71.0,23.0,-100.00,SSW,207,17.0,31.0,16,0.00,,,0.00,334.000000,,2013-09-27 01:01:00,
2013-09-26 19:11:00,71.0,23.0,-100.00,SSW,207,17.0,31.0,16,0.00,,,0.00,334.000000,,2013-09-27 01:11:00,
2013-09-26 19:42:00,66.0,25.0,-100.00,SW,222,15.0,28.0,21,0.00,,,0.00,69.000000,,2013-09-27 01:42:00,
2013-09-26 19:52:00,66.0,25.0,-100.00,SW,222,15.0,28.0,21,0.00,,,0.00,69.000000,,2013-09-27 01:52:00,
2013-09-26 20:02:00,66.0,25.0,-100.00,SW,222,15.0,28.0,21,0.00,,,0.00,69.000000,,2013-09-27 02:02:00,
2013-09-26 20:12:00,66.0,25.0,-100.00,SW,222,15.0,28.0,21,0.00,,,0.00,69.000000,,2013-09-27 02:12:00,
2013-09-26 20:43:00,64.0,26.0,-100.00,SSW,209,11.0,20.0,24,0.00,,,0.00,1.000000,,2013-09-27 02:43:00,
2013-09-26 20:53:00,64.0,26.0,-100.00,SSW,209,11.0,20.0,24,0.00,,,0.00,1.000000,,2013-09-27 02:53:00,
2013-09-26 21:02:00,64.0,26.0,-100.00,SSW,209,11.0,20.0,24,0.00,,,0.00,1.000000,,2013-09-27 03:02:00,
2013-09-26 21:12:00,64.0,26.0,-100.00,SSW,209,11.0,20.0,24,0.00,,,0.00,1.000000,,2013-09-27 03:12:00,
2013-09-26 21:45:00,62.0,26.0,-100.00,SSW,198,10.0,15.0,25,0.00,,,0.00,1.000000,,2013-09-27 03:45:00,
2013-09-26 21:55:00,62.0,26.0,-100.00,SSW,198,10.0,15.0,25,0.00,,,0.00,1.000000,,2013-09-27 03:55:00,
2013-09-26 22:05:00,62.0,26.0,-100.00,SSW,198,10.0,15.0,25,0.00,,,0.00,1.000000,,2013-09-27 04:05:00,
2013-09-26 22:13:00,62.0,26.0,-100.00,SSW,198,10.0,15.0,25,0.00,,,0.00,1.000000,,2013-09-27 04:13:00,
2013-09-26 22:44:00,60.0,28.0,-100.00,South,185,8.0,20.0,29,0.00,,,0.00,1.000000,,2013-09-27 04:44:00,
2013-09-26 22:54:00,60.0,28.0,-100.00,South,185,8.0,20.0,29,0.00,,,0.00,1.000000,,2013-09-27 04:54:00,
2013-09-26 23:03:00,60.0,28.0,-100.00,South,185,8.0,20.0,29,0.00,,,0.00,1.000000,,2013-09-27 05:03:00,
2013-09-26 23:12:00,60.0,28.0,-100.00,South,185,8.0,20.0,29,0.00,,,0.00,1.000000,,2013-09-27 05:12:00,
2013-09-26 23:43:00,59.0,29.0,-100.00,SSE,161,5.0,14.0,32,0.00,,,0.00,1.000000,,2013-09-27 05:43:00,
2013-09-26 23:52:00,59.0,29.0,-100.00,SSE,161,5.0,14.0,32,0.00,,,0.00,1.000000,,2013-09-27 05:52:00,